This is the latest recevied weather packets stored in our database for station/object dl1wer-13. If no packets are shown the sender has not sent any weather packets the latest 10 day(s).
| Time | Temp. | Humidity | Pressure | Rain* | Wind** | Luminosity | Snow |
|---|---|---|---|---|---|---|---|
| 1777617019 | 8.33° C | 43% | 1051.6 hPa | 0 mm | - | - | - |
| 1777616417 | 7.78° C | 43% | 1051.6 hPa | 0 mm | - | - | - |
| 1777615818 | 7.78° C | 42% | 1051.7 hPa | 0 mm | - | - | - |
| 1777615218 | 8.33° C | 42% | 1051.8 hPa | 0 mm | - | - | - |
| 1777614619 | 8.33° C | 43% | 1051.7 hPa | 0 mm | - | - | - |
| 1777614018 | 7.78° C | 44% | 1051.5 hPa | 0 mm | - | - | - |
| 1777613418 | 7.78° C | 43% | 1051.6 hPa | 0 mm | - | - | - |
| 1777612819 | 7.78° C | 45% | 1051.3 hPa | 0 mm | - | - | - |
| 1777612218 | 8.33° C | 49% | 1051.3 hPa | 0 mm | - | - | - |
| 1777611619 | 6.67° C | 54% | 1051 hPa | 0 mm | - | - | - |
| 1777611018 | 6.11° C | 57% | 1051.2 hPa | 0 mm | - | - | - |
| 1777610418 | 5° C | 58% | 1051.2 hPa | 0 mm | - | - | - |
| 1777609818 | 3.89° C | 59% | 1050.8 hPa | 0 mm | - | - | - |
| 1777609218 | 3.89° C | 59% | 1051 hPa | 0 mm | - | - | - |
| 1777608617 | 3.89° C | 58% | 1050.7 hPa | 0 mm | - | - | - |
| 1777608018 | 3.89° C | 58% | 1050.7 hPa | 0 mm | - | - | - |
| 1777607417 | 3.89° C | 57% | 1051.1 hPa | 0 mm | - | - | - |
| 1777606818 | 4.44° C | 57% | 1051.1 hPa | 0 mm | - | - | - |
| 1777606218 | 4.44° C | 57% | 1050.8 hPa | 0 mm | - | - | - |
| 1777605618 | 3.89° C | 58% | 1050.8 hPa | 0 mm | - | - | - |
| 1777605018 | 3.89° C | 58% | 1050.9 hPa | 0 mm | - | - | - |
| 1777604418 | 3.33° C | 58% | 1050.9 hPa | 0 mm | - | - | - |
| 1777603819 | 3.89° C | 58% | 1050.9 hPa | 0 mm | - | - | - |
| 1777603218 | 4.44° C | 56% | 1051 hPa | 0 mm | - | - | - |
| 1777602618 | 4.44° C | 56% | 1050.9 hPa | 0 mm | - | - | - |
* Rain latest hour (hover to see other rain measurements)
** Current wind speed in m/s (hover to see current wind gust speed)